Change the Weather History Date:

Friday, June 28, 2013

  Actual Average Record
Temperature  
Mean Temperature 66 °F -  
Max Temperature 78 °F 84 °F 98 °F (2011)
Min Temperature 59 °F 53 °F 48 °F (1999)
Cooling Degree Days 1    
Growing Degree Days 16 (Base 50)    
Moisture  
Dew Point 50 °F    
Average Humidity 54    
Maximum Humidity 68    
Minimum Humidity 36    
Precipitation  
Precipitation 0.00 in - - ()
Sea Level Pressure  
Sea Level Pressure 30.29 in    
Wind  
Wind Speed 10 mph (NNE)    
Max Wind Speed 16 mph    
Max Gust Speed 17 mph    
Visibility 10 miles    
Events      
Averages and records for this station are not official NWS values.
T = Trace of Precipitation, MM = Missing Value Source: NWS Daily Summary

Daily Weather History Graph

Daily Weather History Graph

Search for Another Location

Airport or City:

Trip Planner

Search our weather history database for the weather conditions in past years. The results will help you decide how hot, cold, wet, or windy it might be!

Date:

Astronomy

Jun. 28, 2013 Rise Set
Actual Time 5:32 AM MDT 8:34 PM MDT
Civil Twilight 4:59 AM MDT 9:07 PM MDT
Nautical Twilight 4:16 AM MDT 9:49 PM MDT
Astronomical Twilight 3:27 AM MDT 10:38 PM MDT
Moon No Moon Rise 11:44 AM MDT (6/28)
Length of Visible Light 16h 08m
Length of Day
15h 02m
Waning Gibbous, 65% of the Moon is Illuminated
Jun 28
Waning Gibbous
Jun 29
Last Quarter
Jul 8
New
Jul 15
First Quarter
Jul 22
Full

Hourly Weather History & Observations

Time (MDT) Temp. Dew Point Humidity Pressure Visibility Wind Dir Wind Speed Gust Speed Precip Events Conditions
12:35 AM 73.4 °F 46.4 °F 38% 30.29 in 10.0 mi ESE 6.9 mph - N/A   Clear
12:55 AM 73.4 °F 44.6 °F 36% 30.29 in 10.0 mi East 10.4 mph - N/A   Clear
1:15 AM 71.6 °F 46.4 °F 41% 30.29 in 10.0 mi East 12.7 mph - N/A   Clear
1:35 AM 69.8 °F 48.2 °F 46% 30.29 in 10.0 mi East 16.1 mph - N/A   Clear
2:15 AM 69.8 °F 48.2 °F 46% 30.29 in 10.0 mi East 16.1 mph - N/A   Clear
2:35 AM 69.8 °F 48.2 °F 46% 30.29 in 10.0 mi NE 3.5 mph - N/A   Clear
2:55 AM 66.2 °F 48.2 °F 52% 30.29 in 10.0 mi NNE 3.5 mph - N/A   Clear
3:35 AM 62.6 °F 51.8 °F 68% 30.29 in 10.0 mi North 8.1 mph - N/A   Clear
3:55 AM 62.6 °F 48.2 °F 59% 30.28 in 10.0 mi North 9.2 mph - N/A   Clear
4:15 AM 64.4 °F 48.2 °F 56% 30.28 in 10.0 mi North 9.2 mph - N/A   Clear
4:35 AM 62.6 °F 48.2 °F 59% 30.28 in 10.0 mi North 8.1 mph - N/A   Clear
4:55 AM 62.6 °F 48.2 °F 59% 30.28 in 10.0 mi North 6.9 mph - N/A   Clear
5:15 AM 60.8 °F 48.2 °F 63% 30.28 in 10.0 mi NNW 9.2 mph - N/A   Clear
5:35 AM 60.8 °F 48.2 °F 63% 30.28 in 10.0 mi NNW 8.1 mph - N/A   Clear
5:55 AM 59.0 °F 48.2 °F 67% 30.29 in 10.0 mi NNW 9.2 mph - N/A   Clear
6:15 AM 62.6 °F 51.8 °F 68% 30.29 in 10.0 mi North 10.4 mph - N/A   Clear
6:55 AM 66.2 °F 51.8 °F 60% 30.29 in 10.0 mi North 12.7 mph - N/A   Clear
7:15 AM 68.0 °F 51.8 °F 56% 30.29 in 10.0 mi North 11.5 mph - N/A   Clear
7:35 AM 69.8 °F 51.8 °F 53% 30.29 in 10.0 mi North 11.5 mph - N/A   Clear
7:55 AM 69.8 °F 53.6 °F 56% 30.29 in 10.0 mi North 11.5 mph - N/A   Clear
8:15 AM 71.6 °F 53.6 °F 53% 30.29 in 10.0 mi North 11.5 mph - N/A   Clear
8:35 AM 73.4 °F 53.6 °F 50% 30.30 in 10.0 mi North 12.7 mph - N/A   Clear
9:35 AM 78.8 °F 53.6 °F 42% 30.30 in 10.0 mi NNE 12.7 mph 17.3 mph N/A   Clear